Weather History for Mitchell, SD

Change the Weather History Date:

Wednesday, November 21, 2012

  Actual Average Record
Temperature  
Mean Temperature 52 °F 31 °F  
Max Temperature 71 °F 41 °F 75 °F (1960)
Min Temperature 33 °F 21 °F -9 °F (1937)
Degree Days  
Heating Degree Days 13 34  
Month to date heating degree days 538 593  
Since 1 July heating degree days 1206 1234  
Cooling Degree Days 0 0  
Month to date cooling degree days 0 0  
Year to date cooling degree days 1236 824  
Growing Degree Days 2 (Base 50)    
Moisture  
Dew Point 29 °F    
Average Humidity 44    
Maximum Humidity 82    
Minimum Humidity 20    
Precipitation  
Precipitation 0.00 in 0.02 in 0.64 in (1979)
Month to date precipitation 0.08 0.62  
Year to date precipitation 21.16 20.91  
Snow  
Snow 0.00 in - 2.50 in (1985)
Month to date snowfall T  
Since 1 July snowfall 0.7  
Since 1 September snowfall 0.7  
Snow Depth 0.00 in    
Sea Level Pressure  
Sea Level Pressure 29.80 in    
Wind  
Wind Speed 10 mph (South)    
Max Wind Speed 20 mph    
Max Gust Speed 28 mph    
Visibility 10 miles    
Events      
T = Trace of Precipitation, MM = Missing Value Source: NWS Daily Summary

Daily Weather History Graph

Daily Weather History Graph

Search for Another Location

Airport:

Trip Planner

Search our weather history database for the weather conditions in past years. The results will help you decide how hot, cold, wet, or windy it might be!

Date:

Astronomy

Nov. 21, 2012 Rise Set
Actual Time 7:34 AM CST 5:01 PM CST
Civil Twilight 7:03 AM CST 5:32 PM CST
Nautical Twilight 6:28 AM CST 6:07 PM CST
Astronomical Twilight 5:53 AM CST 6:42 PM CST
Moon 1:29 PM CST (11/21) 12:43 AM CST (11/21)
Length of Visible Light 10h 29m
Length of Day
9h 26m
First Quarter, 62% of the Moon is Illuminated
Nov 21
First Quarter
Nov 28
Full
Dec 6
Last Quarter
Dec 13
New
Dec 19
First Quarter

Hourly Weather History & Observations

Time (CST) Temp. Windchill Dew Point Humidity Pressure Visibility Wind Dir Wind Speed Gust Speed Precip Events Conditions
12:53 AM 45.0 °F 41.8 °F 30.9 °F 58% 29.96 in 10.0 mi South 5.8 mph - N/A   Clear
1:53 AM 45.0 °F 41.2 °F 30.9 °F 58% 29.94 in 10.0 mi SSW 6.9 mph - N/A   Clear
2:53 AM 45.0 °F 41.2 °F 30.9 °F 58% 29.94 in 10.0 mi SSW 6.9 mph - N/A   Clear
3:53 AM 41.0 °F - 30.0 °F 65% 29.92 in 10.0 mi Calm Calm - N/A   Clear
4:53 AM 41.0 °F 36.4 °F 30.0 °F 65% 29.91 in 10.0 mi South 6.9 mph - N/A   Clear
5:53 AM 35.1 °F 31.0 °F 28.9 °F 78% 29.93 in 10.0 mi SE 4.6 mph - N/A   Clear
6:53 AM 33.1 °F 30.0 °F 28.0 °F 82% 29.92 in 10.0 mi SE 3.5 mph - N/A   Clear
7:53 AM 35.1 °F 27.9 °F 28.9 °F 78% 29.92 in 10.0 mi SSE 9.2 mph - N/A   Clear
8:53 AM 42.1 °F 37.7 °F 32.0 °F 67% 29.90 in 10.0 mi South 6.9 mph - N/A   Clear
9:53 AM 48.9 °F - 30.9 °F 50% 29.88 in 10.0 mi South 9.2 mph - N/A   Clear
10:53 AM 55.9 °F - 30.9 °F 39% 29.85 in 10.0 mi South 10.4 mph - N/A   Clear
11:53 AM 62.1 °F - 28.0 °F 28% 29.81 in 10.0 mi South 8.1 mph - N/A   Clear
12:53 PM 66.0 °F - 28.9 °F 25% 29.76 in 10.0 mi South 13.8 mph - N/A   Clear
1:53 PM 70.0 °F - 28.0 °F 21% 29.73 in 10.0 mi South 10.4 mph 20.7 mph N/A   Clear
2:53 PM 70.0 °F - 28.0 °F 21% 29.71 in 10.0 mi South 11.5 mph - N/A   Clear
3:53 PM 70.0 °F - 27.0 °F 20% 29.70 in 10.0 mi South 12.7 mph - N/A   Clear
4:53 PM 64.0 °F - 27.0 °F 25% 29.69 in 10.0 mi South 10.4 mph - N/A   Clear
5:53 PM 57.9 °F - 28.0 °F 32% 29.69 in 10.0 mi South 11.5 mph - N/A   Clear
6:53 PM 62.1 °F - 28.0 °F 28% 29.68 in 10.0 mi South 16.1 mph 24.2 mph N/A   Clear
7:53 PM 61.0 °F - 28.9 °F 30% 29.68 in 10.0 mi SSW 16.1 mph - N/A   Clear
8:53 PM 59.0 °F - 28.0 °F 31% 29.66 in 10.0 mi SSW 16.1 mph - N/A   Clear
9:53 PM 57.9 °F - 27.0 °F 31% 29.65 in 10.0 mi SSW 12.7 mph - N/A   Clear
10:53 PM 55.9 °F - 27.0 °F 33% 29.63 in 10.0 mi SSW 13.8 mph - N/A   Clear
11:53 PM 54.0 °F - 26.1 °F 34% 29.63 in 10.0 mi SSW 13.8 mph - N/A   Clear